Regional Weather Roundup
Issued by NWS

Home | Current Version | Previous Version | Graphics & Text | Print | Product List | Glossary On
Versions: 1 2 3 4 5 6 7 8 9 10 11 12 13 14 15 16 17 18 19 20 21 22 23 24 25 26 27 28 29 30 31 32 33 34 35 36 37 38 39 40 41 42 43 44 45 46 47 48 49 50
000
ASUS43 KMKX 230011
RWRWI

WISCONSIN REGIONAL WEATHER ROUNDUP
NATIONAL WEATHER SERVICE MILWAUKEE/SULLIVAN WI
700 PM CDT FRI JUL 22 2016

NOTE: "FAIR" INDICATES FEW OR NO CLOUDS BELOW 12,000 FEET WITH NO
SIGNIFICANT WEATHER AND/OR OBSTRUCTIONS TO VISIBILITY.

WIZ001-002-006>008-014>016-023>028-230100-
NORTHWEST WISCONSIN

CITY           SKY/WX    TMP DP  RH WIND       PRES   REMARKS
SUPERIOR ARPT  MOSUNNY   85  63  46 NW8       29.96S HX  86
6HR MIN TEMP:  85; 6HR MAX TEMP:  92;

ASHLAND        SUNNY     87  67  51 W3        29.97R HX  90
6HR MIN TEMP:  87; 6HR MAX TEMP:  93;

HAYWARD        SUNNY     86  68  54 W3        30.00S HX  89
6HR MIN TEMP:  86; 6HR MAX TEMP:  90;

SIREN          SUNNY     88  66  48 CALM      30.00F HX  90
CUMBERLAND     SUNNY     84  63  48 NW3       30.01F HX  85
RICE LAKE      SUNNY     85  67  53 CALM      30.02S HX  88
6HR MIN TEMP:  85; 6HR MAX TEMP:  89;

CHETEK         SUNNY     88  67  49 N3        30.01R HX  91
6HR MIN TEMP:  87; 6HR MAX TEMP:  91;

LADYSMITH      SUNNY     86  66  51 NW5       30.03R HX  88
6HR MIN TEMP:  86; 6HR MAX TEMP:  90;

EAU CLAIRE     SUNNY     91  67  44 N3        29.98R HX  94
6HR MIN TEMP:  88; 6HR MAX TEMP:  93;

MENOMONIE      SUNNY     93  61  34 W6        29.99S HX  93
6HR MIN TEMP:  92; 6HR MAX TEMP:  96;

NEW RICHMOND   SUNNY     90  56  32 N6        30.00F HX  88
6HR MIN TEMP:  90; 6HR MAX TEMP:  94;

OSCEOLA        SUNNY     88  63  42 CALM      30.02F HX  88
6HR MIN TEMP:  88; 6HR MAX TEMP:  92;

$$

WIZ003>005-009-010-017-018-230100-
NORTH CENTRAL WISCONSIN

CITY           SKY/WX    TMP DP  RH WIND       PRES   REMARKS
MANITOWISH WTR SUNNY     83  64  52 W6        30.01S HX  84
6HR MIN TEMP:  83; 6HR MAX TEMP:  88;

ARBOR VITAE    SUNNY     85  61  45 NW7       30.01S HX  85
6HR MIN TEMP:  85; 6HR MAX TEMP:  92;

WOODRUFF       SUNNY     85  61  45 NW7       30.01S HX  85
6HR MIN TEMP:  85; 6HR MAX TEMP:  92;

RHINELANDER    SUNNY     86  62  44 NW6       30.01S HX  86
6HR MIN TEMP:  86; 6HR MAX TEMP:  91;

EAGLE RIVER    SUNNY     84  55  36 NW6       30.00S HX  83
6HR MIN TEMP:  84; 6HR MAX TEMP:  89;

LAND O LAKES   SUNNY     85  57  39 NW6       30.01S HX  84
6HR MIN TEMP:  85; 6HR MAX TEMP:  89;

PHILLIPS       SUNNY     85  66  53 W5        30.01R HX  87
6HR MIN TEMP:  85; 6HR MAX TEMP:  88;

TOMAHAWK       SUNNY     85  63  47 W5        30.01S HX  86
6HR MIN TEMP:  85; 6HR MAX TEMP:  88;

MEDFORD        SUNNY     84  67  57 W5        30.01R HX  86
6HR MIN TEMP:  84; 6HR MAX TEMP:  88;

MERRILL        SUNNY     87  67  51 NW5       30.00R HX  89
6HR MIN TEMP:  87; 6HR MAX TEMP:  90;

$$

WIZ029-030-035-036-043>047-230100-
CENTRAL WISCONSIN

CITY           SKY/WX    TMP DP  RH WIND       PRES   REMARKS
WAUSAU         SUNNY     87  65  47 W9        29.97S HX  89
6HR MIN TEMP:  87; 6HR MAX TEMP:  91;

MOSINEE        SUNNY     88  64  45 SW5       30.00F HX  89
MARSHFIELD     SUNNY     87  66  49 W5        30.00S HX  89
6HR MIN TEMP:  87; 6HR MAX TEMP:  91;

STEVENS POINT  SUNNY     86  66  50 W5        29.98F HX  89
6HR MIN TEMP:  85; 6HR MAX TEMP:  89;

WAUPACA        SUNNY     92  65  40 W3        29.96S HX  94
6HR MIN TEMP:  92; 6HR MAX TEMP:  94;

WAUTOMA        SUNNY     90  68  48 NW3       29.97S HX  94
6HR MIN TEMP:  88; 6HR MAX TEMP:  92;

WISC RAPIDS    SUNNY     90  60  36 NW5       29.99S HX  89
6HR MIN TEMP:  89; 6HR MAX TEMP:  93;

CAMP DOUGLAS   SUNNY     91  77  63 CALM      29.97S HX 104
6HR MIN TEMP:  86; 6HR MAX TEMP:  93;

$$

WIZ011>013-019>022-031-037>040-048>050-230100-
NORTHEAST WISCONSIN

CITY           SKY/WX    TMP DP  RH WIND       PRES   REMARKS
ANTIGO         SUNNY     86  66  52 CALM      30.00S HX  88
6HR MIN TEMP:  85; 6HR MAX TEMP:  89;

SHAWANO        SUNNY     90  65  43 W5        29.94F HX  92
6HR MIN TEMP:  89; 6HR MAX TEMP:  93;

OCONTO         SUNNY     88  71  57 SW5       29.92S HX  94
6HR MIN TEMP:  88; 6HR MAX TEMP:  91;

STURGEON BAY   SUNNY     87  69  54 SW6       29.94S HX  91
6HR MIN TEMP:  86; 6HR MAX TEMP:  90;

GREEN BAY      SUNNY     87  70  56 W3        29.94S HX  92
6HR MIN TEMP:  87; 6HR MAX TEMP:  90;

MANITOWOC      SUNNY     80  69  69 S7        29.96S HX  83
6HR MIN TEMP:  80; 6HR MAX TEMP:  85;

APPLETON       SUNNY     88  64  45 W6        29.95S HX  89
CLINTONVILLE   SUNNY     90  59  35 W6        29.95S HX  89
OSHKOSH        SUNNY     89  70  53 W5        29.96R HX  94
6HR MIN TEMP:  86; 6HR MAX TEMP:  90;

$$

WIZ032>034-041-042-053>061-230100-
SOUTHWEST WISCONSIN

CITY           SKY/WX    TMP DP  RH WIND       PRES   REMARKS
LA CROSSE      SUNNY     92  75  57 NW3       29.95S HX 103
6HR MIN TEMP:  87; 6HR MAX TEMP:  94;

SPARTA         SUNNY     90  73  57 W3        29.97F HX  97
6HR MIN TEMP:  85; 6HR MAX TEMP:  91;

VIROQUA        SUNNY     86  78  77 SW3       30.00S HX  98
6HR MIN TEMP:  84; 6HR MAX TEMP:  89;

BOSCOBEL       MOSUNNY   87  78  74 CALM      29.97S HX 100
6HR MIN TEMP:  83; 6HR MAX TEMP:  91;

PRAIRIE DU CHI CLOUDY    85  75  71 CALM      29.97S HX  93
6HR MIN TEMP:  84; 6HR MAX TEMP:  88;

PLATTEVILLE    MOSUNNY   83  80  88 SW5       30.00S HX  96
6HR MIN TEMP:  82; 6HR MAX TEMP:  87;

$$

WIZ056-057-062-063-064-067-068-230100-
SOUTH CENTRAL WISCONSIN

CITY           SKY/WX    TMP DP  RH WIND       PRES   REMARKS
REEDSBURG      SUNNY    N/A N/A N/A SW7       29.97S
BARABOO/DELLS  SUNNY     87  76  69 W5        29.97S HX  97
6HR MIN TEMP:  84; 6HR MAX TEMP:  89;

LONE ROCK      SUNNY     87  78  74 SW5       29.97S HX 100
6HR MIN TEMP:  85; 6HR MAX TEMP:  89;

MINERAL POINT  MOSUNNY   86  79  79 CALM      30.01S HX  99
MADISON        MOSUNNY   89  75  63 CALM      29.96F HX  99
6HR MIN TEMP:  82; 6HR MAX TEMP:  90;

MIDDLETON      SUNNY     89  76  65 W3        29.98F HX  99
6HR MIN TEMP:  85; 6HR MAX TEMP:  90;

WATERTOWN      SUNNY     87  76  71 CALM      29.97F HX  97
6HR MIN TEMP:  85; 6HR MAX TEMP:  89;

MONROE         SUNNY     86  75  70 SW3       29.99F HX  95
JANESVILLE     SUNNY     90  75  62 CALM      29.96F HX 100
$$

WIZ051-052-058>065-066-070>072-230100-
SOUTHEAST WISCONSIN

CITY           SKY/WX    TMP DP  RH WIND       PRES   REMARKS
MILWAUKEE      MOSUNNY   84  70  62 E6        29.96S HX  88
6HR MIN TEMP:  84; 6HR MAX TEMP:  90;

WAUKESHA       SUNNY     88  70  55 W7        29.99S HX  92
MILWAUKEE/TIMM SUNNY     90  66  45 W7        29.97S HX  92
RACINE         SUNNY     86  71  60 SE5       29.98S HX  91
6HR MIN TEMP:  85; 6HR MAX TEMP:  89;

BURLINGTON     SUNNY     87  74  65 NW5       29.97S HX  95
6HR MIN TEMP:  85; 6HR MAX TEMP:  90;

KENOSHA        SUNNY     89  75  63 W3        29.97S HX  99
6HR MIN TEMP:  86; 6HR MAX TEMP:  91;

FOND DU LAC    SUNNY     88  73  61 SW6       29.97R HX  95
6HR MIN TEMP:  88; 6HR MAX TEMP:  91;

SHEBOYGAN      SUNNY     86  71  60 W7        29.96S HX  91
6HR MIN TEMP:  86; 6HR MAX TEMP:  92;

WEST BEND      SUNNY     88  68  51 NW5       29.98R HX  91
JUNEAU         SUNNY     86  74  66 CALM      29.99R HX  94
6HR MIN TEMP:  84; 6HR MAX TEMP:  88;

$$

LSZ147-162-230100-
LAKE SUPERIOR

STATION/POSITION TIME  TEMP    WIND        PRES    WAVE
                       AIR SEA DIR/SP/G            HT/PER
                 (UTC) (F)     (DEG/KT/KT) (MB)    (FT/S)
W MID LAKE BUOY  2350   66 58  250/  8/ 10 1012.6R   1/ 4
DEVILS ISLAND    0000   77     250/  8/ 10 1013.2F
PORT WING        2140   84     270/  9/ 12 1014.6
SAXON HARBOR     2300   83      CALM  /  2 1014.2F
$$

LMZ867-665-643>646-230100-
LAKE MICHIGAN

STATION/POSITION TIME  TEMP    WIND        PRES    WAVE
                       AIR SEA DIR/SP/G            HT/PER
                 (UTC) (F)     (DEG/KT/KT) C1F1C2F2C3F3C4F4C5F5C6F6C7F7C8M1C9M2Ca!



USA.gov is the U.S. government's official web portal to all federal, state and local government web resources and services.